Tracking 22993 objects as of 12-May-2021
HD Live streaming from Space Station
objects crossing your sky now

NSS 513 (INTELSAT 513)

Track NSS 513 (INTELSAT 513) now!
NSS 513 (INTELSAT 513) is classified as:


NORAD ID: 19121
Int'l Code: 1988-040A
Perigee: 36,197.0 km
Apogee: 36,354.7 km
Inclination: 15.3 °
Period: 1,460.8 minutes
Semi major axis: 42646 km
RCS: 9.2727 m2 (large)
Launch date: May 17, 1988
Source: Netherlands (NETH)
Launch site: FRENCH GUIANA (FRGUI)
aabbcc
Your satellite tracking list
Your tracking list is empty




NASA's NSSDC Master Catalog

Two Line Element Set (TLE):
1 19121U 88040A   21130.87664025 -.00000193  00000-0  00000-0 0  9993
2 19121  15.3317   3.0208 0018491  58.8591 125.5638  0.98576274 96179
Source of the keplerian elements: AFSPC